Flag for Germany Weather past 2 weeks in Hoyerswerda, Saxony, Germany

Now
85 °F

Warm.


Feels Like: 86 °F
Forecast: 65 / 79 °F
Wind: 2 mph from South

Location: Cottbus

Current Time: Jul 5, 2015 at 11:54:58 PM

Latest Report: Jul 5, 2015 at 11:00 PM


Visibility: 11 mi

Pressure: 29.86 "Hg

Humidity: 50%

Dew point: 64 °F

Location of HoyerswerdaLocation

Historic Weather in Hoyerswerda — Graph

°F

Hoyerswerda temperature yesterday

Maximum temperature yesterday: 98 °F (at 5:00 PM)
Minimum temperature yesterday: 65 °F (at 5:00 AM)
Average temperature yesterday: 84 °F

Past Weeks' High & Low Weather Summary

 TemperatureHumidityPressure
High98 °F (Jul 4, 5:00 PM)100% (Jun 23, 5:00 AM)30.28 "Hg (Jun 23, 5:00 AM)
Low45 °F (Jun 25, 4:00 AM)25% (Jul 4, 4:00 PM)29.64 "Hg (Jun 23, 7:00 AM)
Average67 °F66%30.08 "Hg
* Reported Jun 20 11:00 PM — Jul 5 11:00 PM, Hoyerswerda, Weather by CustomWeather, © 2015

Note: Actual official high and low records may vary slightly from our data, if they occured in-between our weather recording intervals... More about our weather records

Advertising

Hoyerswerda weather history for previous 24 hours

 ConditionsComfort  
Time TempWeatherWind HumidityBarometerVisibility
11:00 PM
Sun, Jul 5
85 °FWarm.2 mph50%29.86 "Hg11 mi
10:00 PM87 °FWarm.3 mph46%29.87 "Hg12 mi
9:00 PM90 °FOvercast.3 mph44%29.87 "Hg11 mi
8:00 PM94 °FPassing clouds.3 mph37%29.87 "Hg14 mi
7:00 PM97 °FSunny.3 mph30%29.88 "Hg14 mi
6:00 PM97 °FSunny.1 mph29%29.91 "Hg16 mi
5:00 PM97 °FSunny.2 mph30%29.93 "Hg14 mi
4:00 PM96 °FSunny.1 mph30%29.95 "Hg14 mi
3:00 PM96 °FSunny.3 mph28%29.97 "Hg14 mi
2:00 PM93 °FSunny.2 mph34%29.99 "Hg13 mi
1:00 PM93 °FSunny.3 mph34%30.01 "Hg13 mi
12:00 PM91 °FSunny.2 mph35%30.02 "Hg11 mi
11:00 AM87 °FScattered clouds.2 mph41%30.03 "Hg11 mi
10:00 AM83 °FPassing clouds.2 mph48%30.05 "Hg11 mi
9:00 AM80 °FOvercast.2 mph53%30.06 "Hg11 mi
8:00 AM79 °FOvercast.2 mph54%30.04 "Hg12 mi
7:00 AM78 °FOvercast.3 mph52%30.02 "Hg12 mi
5:00 AM78 °FOvercast.2 mph55%30.07 "Hg13 mi
4:00 AM72 °FOvercast.1 mph74%30.08 "Hg7 mi
3:00 AM73 °FMild.1 mph72%30.06 "Hg7 mi
2:00 AM78 °FOvercast.2 mph61%30.06 "Hg9 mi
1:00 AM76 °FOvercast.1 mph65%30.06 "Hg8 mi
12:00 AM78 °FOvercast.1 mph59%30.05 "Hg9 mi
11:00 PM
Sat, Jul 4
83 °FWarm.2 mph50%30.05 "Hg9 mi
Weather by CustomWeather, © 2015

See weather overviewHow to use our weather pages